Flag for Peru Weather past 2 weeks in Chiclayo, Lambayeque, Peru

Now
82 °F

Passing clouds.


Feels Like: 85 °F
Forecast: 71 / 80 °F
Wind: 16 mph from South

Location: Chiclayo Airport

Current Time: May 29, 2015 at 1:42:21 PM

Latest Report: May 29, 2015 at 1:00 PM


Visibility: N/A

Pressure: 29.89 "Hg

Humidity: 62%

Dew point: 68 °F

Location of ChiclayoLocation

Historic Weather in Chiclayo — Graph

°F

Chiclayo temperature yesterday

Maximum temperature yesterday: 81 °F (at 12:00 PM)
Minimum temperature yesterday: 72 °F (at 12:00 AM)
Average temperature yesterday: 75 °F

Past Weeks' High & Low Weather Summary

 TemperatureHumidityPressure
High84 °F (May 18, 1:00 PM)100% (May 22, 4:00 PM)29.98 "Hg (May 22, 4:00 PM)
Low70 °F (May 20, 3:00 AM)58% (May 14, 12:00 PM)29.77 "Hg (May 14, 3:00 PM)
Average75 °F79%29.89 "Hg
* Reported May 14 12:00 Noon — May 29 12:00 Noon, Chiclayo, Weather by CustomWeather, © 2015

Note: Actual official high and low records may vary slightly from our data, if they occured in-between our weather recording intervals... More about our weather records

Advertising

Chiclayo weather history for previous 24 hours

 ConditionsComfort  
Time TempWeatherWind HumidityBarometerVisibility
12:00 PM
Fri, May 29
82 °FPassing clouds.14 mph62%29.92 "HgN/A
11:00 AM79 °FSunny.14 mph70%29.92 "Hg10 mi
10:00 AM77 °FPartly sunny.15 mph74%29.95 "HgN/A
9:00 AM75 °FOvercast.13 mph78%29.95 "HgN/A
8:00 AM73 °FPartly sunny.12 mph83%29.95 "HgN/A
7:00 AM72 °FScattered clouds.12 mph88%29.92 "HgN/A
6:00 AM72 °FOvercast.13 mph88%29.92 "HgN/A
5:00 AM72 °FOvercast.12 mph88%29.89 "HgN/A
4:00 AM72 °FPassing clouds.10 mph88%29.89 "HgN/A
3:00 AM72 °FPassing clouds.12 mph88%29.89 "HgN/A
2:00 AM72 °FOvercast.13 mph88%29.92 "HgN/A
1:00 AM72 °FOvercast.9 mph88%29.92 "HgN/A
12:00 AM72 °FClear.8 mph88%29.92 "Hg10 mi
11:00 PM
Thu, May 28
72 °FClear.14 mph88%29.92 "Hg10 mi
10:00 PM73 °FClear.14 mph83%29.92 "Hg10 mi
9:00 PM73 °FClear.14 mph83%29.89 "Hg10 mi
8:00 PM73 °FClear.12 mph83%29.89 "Hg10 mi
7:00 PM73 °FClear.12 mph78%29.89 "Hg10 mi
6:00 PM75 °FSunny.12 mph74%29.86 "Hg10 mi
5:00 PM77 °FPartly sunny.12 mph69%29.83 "HgN/A
4:00 PM77 °FOvercast.15 mph69%29.83 "HgN/A
3:00 PM77 °FMore clouds than sun.15 mph74%29.86 "HgN/A
2:00 PM79 °FMore clouds than sun.13 mph70%29.86 "HgN/A
1:00 PM81 °FPartly sunny.12 mph66%29.89 "HgN/A
Weather by CustomWeather, © 2015

See weather overviewHow to use our weather pages